Stations météo

réclame
Mon MeteoGroup
UFS TW Ems, Allemagne (10004): Température de l'air & dewpoint: 13.11.2019 10:00:00 - 19.11.2019 10:00:00 (CET)UFS TW Ems, Allemagne (10004): Vitesse du vent & gusts: 13.11.2019 10:00:00 - 19.11.2019 10:00:00 (CET)UFS TW Ems, Allemagne (10004): Direction du vent: 13.11.2019 10:00:00 - 19.11.2019 10:00:00 (CET)UFS TW Ems, Allemagne (10004): reduced air pressure: 13.11.2019 10:00:00 - 19.11.2019 10:00:00 (CET)UFS TW Ems, Allemagne (10004): visibility: 13.11.2019 10:00:00 - 19.11.2019 10:00:00 (CET)UFS TW Ems, Allemagne (10004): Ensoleillement: 13.11.2019 10:00:00 - 19.11.2019 10:00:00 (CET)
Date & Time tt [°C] td [°C] ff [km/h] ff [knt] fx [km/h] fx [knt] dd ppp [hPa] vv [km] sd [min]
19.11.2019 10:00:00 9,4 5,6 40 21 - - NW 1010,2 10 0
19.11.2019 09:00:00 9,2 5,7 43 23 61 33 WNW 1009,5 10 0
19.11.2019 08:00:00 9,4 5,6 47 25 65 35 NW 1008,5 10 0
19.11.2019 07:00:00 9,2 5,7 43 23 - - WNW 1007,5 10 0
19.11.2019 06:00:00 9,2 6,2 43 23 61 33 NNW 1007,1 8 0
19.11.2019 05:00:00 9,3 5,4 47 25 65 35 NW 1006,6 10 0
19.11.2019 04:00:00 9,3 6,7 47 25 - - NW 1006,0 10 0
19.11.2019 03:00:00 9,5 7,3 54 29 65 35 NW 1005,3 10 0
19.11.2019 02:00:00 9,5 6,3 54 29 65 35 NW 1004,9 10 0
19.11.2019 01:00:00 10,1 7,1 54 29 - - NNW 1004,6 10 0
19.11.2019 00:00:00 9,6 7,1 50 27 65 35 NNW 1004,9 10 0
18.11.2019 23:00:00 10,0 7,1 47 25 61 33 NNW 1004,6 10 0
18.11.2019 22:00:00 10,0 7,0 50 27 - - NNW 1004,6 10 0
18.11.2019 21:00:00 10,1 7,8 47 25 61 33 N 1004,4 10 0
18.11.2019 20:00:00 9,7 8,2 43 23 58 31 NNW 1004,5 10 0
18.11.2019 19:00:00 8,9 7,5 47 25 - - NNW 1004,9 6 0
18.11.2019 18:00:00 10,1 7,6 43 23 54 29 NNW 1005,0 10 0
18.11.2019 17:00:00 10,2 7,8 43 23 54 29 NNW 1005,3 10 0
18.11.2019 16:00:00 10,0 7,6 43 23 - - NNW 1005,3 10 0
18.11.2019 15:00:00 9,8 7,4 43 23 54 29 NNW 1005,4 10 0
18.11.2019 14:00:00 9,5 6,7 43 23 54 29 NNW 1005,6 10 0
18.11.2019 13:00:00 9,6 7,4 40 21 - - N 1005,9 10 0
18.11.2019 12:00:00 9,2 7,1 36 19 47 25 N 1006,3 10 0
18.11.2019 11:00:00 9,3 7,0 40 21 50 27 N 1006,8 10 0
18.11.2019 10:00:00 9,0 6,4 43 23 - - N 1007,3 10 0
18.11.2019 09:00:00 8,7 7,1 47 25 58 31 N 1007,3 7 0
18.11.2019 08:00:00 8,6 7,5 43 23 61 33 N 1007,3 9 0
18.11.2019 07:00:00 8,6 6,9 47 25 - - N 1007,8 10 0
18.11.2019 06:00:00 8,0 6,8 43 23 54 29 N 1008,2 6 0
18.11.2019 05:00:00 7,5 6,4 40 21 50 27 N 1008,7 6 0
18.11.2019 04:00:00 8,0 4,7 36 19 - - NNE 1009,0 10 0
18.11.2019 03:00:00 8,3 4,8 32 18 - - NE 1009,2 9 0
18.11.2019 02:00:00 8,9 6,0 29 16 47 25 NE 1009,6 10 0
18.11.2019 01:00:00 8,7 5,5 36 19 - - NE 1010,3 9 0
18.11.2019 00:00:00 9,2 6,2 29 16 - - ENE 1011,0 10 0
17.11.2019 23:00:00 9,3 6,2 25 14 - - NE 1011,4 10 0
17.11.2019 22:00:00 8,9 5,9 22 12 - - NNE 1012,2 10 0
17.11.2019 21:00:00 8,7 5,0 11 6 - - NNE 1012,9 10 0
17.11.2019 20:00:00 8,1 4,3 7 4 - - ENE 1013,0 10 0
17.11.2019 19:00:00 8,0 4,5 4 2 - - E 1013,1 10 0
17.11.2019 18:00:00 8,0 4,7 7 4 - - S 1013,1 10 0
17.11.2019 17:00:00 8,1 3,9 11 6 - - SSE 1013,1 10 0
17.11.2019 16:00:00 8,4 5,0 14 8 - - S 1013,2 10 54
17.11.2019 15:00:00 8,0 4,3 14 8 - - S 1012,7 10 60
17.11.2019 14:00:00 8,6 5,0 18 10 - - S 1012,8 10 60
17.11.2019 13:00:00 8,4 5,8 22 12 - - S 1012,6 10 6
17.11.2019 12:00:00 7,9 6,5 25 14 - - S 1012,9 10 0
17.11.2019 11:00:00 7,2 6,1 32 18 - - S 1013,3 8 30
17.11.2019 10:00:00 8,9 6,2 25 14 - - SSW 1012,5 0,6 42
17.11.2019 09:00:00 9,1 6,4 29 16 - - SSW 1011,7 8 0
17.11.2019 08:00:00 8,9 6,1 36 19 50 27 SSW 1011,5 10 0
17.11.2019 07:00:00 8,6 6,3 40 21 - - SSW 1010,3 10 0
17.11.2019 06:00:00 9,0 7,4 43 23 54 29 SSW 1009,9 10 0
17.11.2019 05:00:00 8,4 7,1 43 23 50 27 SSW 1009,6 10 0
17.11.2019 04:00:00 8,9 6,9 43 23 - - SSW 1009,1 10 0
17.11.2019 03:00:00 9,1 7,0 43 23 54 29 SSW 1008,5 10 0
17.11.2019 02:00:00 9,3 7,1 47 25 58 31 SSW 1008,3 10 0
17.11.2019 01:00:00 8,8 6,7 50 27 - - SSW 1008,0 10 0
17.11.2019 00:00:00 8,8 6,8 50 27 65 35 SSW 1007,7 10 0
16.11.2019 23:00:00 8,5 6,5 54 29 65 35 SSW 1007,3 10 0
16.11.2019 22:00:00 8,7 6,9 54 29 - - SSW 1007,0 10 0
16.11.2019 21:00:00 9,5 7,3 54 29 65 35 SSW 1006,0 10 0
16.11.2019 20:00:00 9,4 7,6 50 27 61 33 SSW 1005,6 10 0
16.11.2019 19:00:00 10,6 6,5 43 23 - - WSW 1005,1 10 0
16.11.2019 18:00:00 10,2 7,0 43 23 54 29 WSW 1004,5 10 0
16.11.2019 17:00:00 10,1 7,9 36 19 50 27 WSW 1004,2 10 0
16.11.2019 16:00:00 9,5 7,9 43 23 - - WSW 1003,9 6 0
16.11.2019 15:00:00 9,5 7,4 40 21 47 25 WSW 1003,7 5 0
16.11.2019 14:00:00 9,8 7,6 32 18 - - WSW 1003,6 7 0
16.11.2019 13:00:00 9,7 7,0 32 18 - - WSW 1003,3 10 0
16.11.2019 12:00:00 9,8 7,0 29 16 - - WSW 1003,3 10 0
16.11.2019 11:00:00 9,6 7,0 25 14 - - W 1003,7 10 0
16.11.2019 10:00:00 9,1 6,5 14 8 - - W 1003,9 10 0
16.11.2019 09:00:00 8,9 7,0 11 6 - - W 1004,5 10 0
16.11.2019 08:00:00 8,9 6,2 14 8 - - W 1004,3 9 0
16.11.2019 07:00:00 9,0 6,1 11 6 - - W 1003,9 10 0
16.11.2019 06:00:00 8,9 6,2 11 6 - - WSW 1004,2 10 0
16.11.2019 05:00:00 8,7 5,9 7 4 - - WSW 1004,1 10 0
16.11.2019 04:00:00 8,6 6,1 11 6 - - SW 1004,5 10 0
16.11.2019 03:00:00 8,5 6,3 11 6 - - SSW 1004,8 10 0
16.11.2019 02:00:00 8,5 6,3 7 4 - - SE 1004,7 10 0
16.11.2019 01:00:00 8,5 6,3 11 6 - - SE 1004,9 10 0
16.11.2019 00:00:00 8,3 6,2 11 6 - - SSE 1005,2 10 0
15.11.2019 23:00:00 8,4 6,5 14 8 - - SE 1005,2 10 0
15.11.2019 22:00:00 8,2 6,2 22 12 - - SE 1005,4 10 0
15.11.2019 21:00:00 8,5 6,3 22 12 - - SE 1005,3 10 0
15.11.2019 20:00:00 8,3 5,6 29 16 47 25 ESE 1005,3 10 0
15.11.2019 19:00:00 8,6 6,4 36 19 - - E 1004,9 10 0
15.11.2019 18:00:00 7,9 5,9 40 21 54 29 E 1004,7 10 0
15.11.2019 17:00:00 7,7 6,1 43 23 54 29 E 1005,0 10 0
15.11.2019 16:00:00 7,4 6,3 40 21 - - E 1005,0 9 0
15.11.2019 15:00:00 7,5 5,8 43 23 54 29 E 1005,1 10 0
15.11.2019 14:00:00 7,4 5,6 43 23 58 31 E 1005,0 10 0
15.11.2019 13:00:00 6,9 4,9 43 23 - - E 1005,6 10 0
15.11.2019 12:00:00 6,7 4,3 47 25 65 35 E 1005,9 10 0
15.11.2019 11:00:00 6,1 4,6 47 25 68 37 E 1006,4 10 0
15.11.2019 10:00:00 7,4 5,2 50 27 - - E 1006,1 10 0
15.11.2019 09:00:00 7,5 4,4 47 25 68 37 E 1006,7 10 0
15.11.2019 08:00:00 8,5 6,0 50 27 68 37 E 1006,6 10 0
15.11.2019 07:00:00 9,4 5,6 50 27 - - ENE 1006,5 10 0
15.11.2019 06:00:00 8,9 5,0 47 25 58 31 ENE 1006,9 10 0
15.11.2019 05:00:00 9,0 5,7 47 25 58 31 ENE 1007,5 10 0
15.11.2019 04:00:00 9,1 6,1 43 23 - - E 1007,9 10 0
15.11.2019 03:00:00 8,6 5,1 36 19 47 25 E 1008,0 10 0
15.11.2019 02:00:00 8,5 5,5 36 19 - - E 1008,1 10 0
15.11.2019 01:00:00 8,4 5,2 32 18 - - E 1008,2 10 0
15.11.2019 00:00:00 8,6 5,9 36 19 47 25 ESE 1008,1 10 0
14.11.2019 23:00:00 8,7 5,7 40 21 47 25 ESE 1007,8 10 0
14.11.2019 22:00:00 9,0 6,3 36 19 - - ESE 1007,6 10 0
14.11.2019 21:00:00 9,1 6,1 36 19 47 25 ESE 1007,8 10 0
14.11.2019 20:00:00 8,8 5,7 36 19 - - ESE 1007,1 10 0
14.11.2019 19:00:00 9,0 5,7 36 19 - - ESE 1007,6 10 0
14.11.2019 18:00:00 7,9 5,4 40 21 47 25 ESE 1006,4 10 0
14.11.2019 17:00:00 8,8 5,5 32 18 - - E 1006,1 10 0
14.11.2019 16:00:00 8,2 5,5 25 14 - - E 1005,5 10 6
14.11.2019 15:00:00 8,0 4,9 22 12 - - ESE 1005,1 10 24
14.11.2019 14:00:00 7,9 5,3 22 12 - - SE 1005,0 10 0
14.11.2019 13:00:00 7,3 5,1 22 12 - - SE 1004,6 10 24
14.11.2019 12:00:00 7,5 5,5 22 12 - - SE 1004,4 10 24
14.11.2019 11:00:00 7,8 6,2 22 12 - - SE 1004,2 10 0
14.11.2019 10:00:00 7,8 6,1 18 10 - - SE 1003,5 10 6
14.11.2019 09:00:00 7,4 5,5 22 12 - - SSE 1003,0 10 0
14.11.2019 08:00:00 7,9 6,1 22 12 - - SSE 1002,0 10 0
14.11.2019 07:00:00 7,9 6,1 18 10 - - SE 1001,3 10 0
14.11.2019 06:00:00 7,8 6,2 25 14 - - S 1000,7 10 0
14.11.2019 05:00:00 7,6 5,7 22 12 - - S 1000,3 10 0
14.11.2019 04:00:00 7,8 6,0 22 12 - - S 1000,1 10 0
14.11.2019 03:00:00 8,2 6,1 25 14 - - S 999,8 10 0
14.11.2019 02:00:00 8,3 5,8 25 14 - - S 999,5 10 0
14.11.2019 01:00:00 8,8 6,1 25 14 - - SSW 999,2 10 0
14.11.2019 00:00:00 9,0 5,5 32 18 - - SSW 999,0 10 0
13.11.2019 23:00:00 9,1 5,5 29 16 - - SSW 998,6 10 0
13.11.2019 22:00:00 9,0 4,4 18 10 - - SSW 998,5 10 0
13.11.2019 21:00:00 9,2 4,4 25 14 - - WSW 998,0 10 0
13.11.2019 20:00:00 9,8 3,8 29 16 47 25 WSW 997,8 10 0
13.11.2019 19:00:00 9,8 4,1 32 18 - - W 997,4 10 0
13.11.2019 18:00:00 9,9 5,7 25 14 58 31 W 996,8 10 0
13.11.2019 17:00:00 9,2 6,0 32 18 54 29 W 996,1 7 0
13.11.2019 16:00:00 9,7 6,2 32 18 - - WSW 995,5 10 0
13.11.2019 15:00:00 9,6 5,9 36 19 - - WSW 995,0 10 24
13.11.2019 14:00:00 10,4 6,3 32 18 47 25 W 994,4 10 24
13.11.2019 13:00:00 10,4 6,0 36 19 - - W 993,8 2,5 42
13.11.2019 12:00:00 10,2 6,4 36 19 50 27 W 993,4 - 48
13.11.2019 11:00:00 9,8 6,4 36 19 47 25 W 993,0 0,2 24
13.11.2019 10:00:00 9,9 6,7 32 18 - - WSW 992,3 4,6 6

tt = Température de l'air
td = dewpoint
ff = Vitesse du vent
fx = gusts
dd = Direction du vent
ppp = reduced air pressure
vv = visibility
sd = Ensoleillement

stations d'obs. à proximité